Content
SEND FEEDBACK

Daily
Averages
Monthly
Summary
United States of America

CRIVITZ, WISCONSIN


Home > North America > United States > Wisconsin
Elevation: 900 feet     Latitude: 45 19N     Longitude: 088 11W

WEATHER
 
SELECT A DAY
Number of Records: 461,638;   Date Range: 1/1/95 - 10/20/14
 
SHARE

PRINT THIS DATA

[ ← Previous Day ]
WEATHER ALMANAC - JANUARY 3, 2013
[ Next Day → ]
[ °C ]   °F
Weather ElementAverageHighLow
Temperature21.1 °F28.4 °F (1:15 pm)17.6 °F (1:55 am)
Dewpoint14.6 °F21.2 °F (1:15 pm)8.6 °F (11:55 pm)
Humidity76.1 %86 % (5:55 am)63 % (5:55 pm)
Barometer30.03 in30.08 in (4:15 pm)29.94 in (11:55 pm)
Wind Speed6.9 mph12.7 mph (8:55 pm)
Wind Gust23 mph (9:55 pm)
Weather ElementAverage
Visibility9.4 mi
Wind DirectionWSW (261.9 °)

Weather ElementTotal
Precipitation---
Heating Degree Days42 (Base 65)
Averaged from 70 records on January 3, 2013
WEATHER CONDITIONS BREAKOUT
WIND DIRECTION BREAKOUT
WEATHER BY HOUR - JANUARY 3, 2013
[ °C ]   °F
Local TimeTemperatureDewpointHumidityBarometerVisibilityWind DirectionWind SpeedGust SpeedPrecipitationEventsConditions
12:35 AM19.4 °F14.0 °F80 %30.01 in10.0 miCalmOvercast
12:55 AM19.4 °F10.4 °F68 %30.01 in10.0 miWest (270°)3.5 mphOvercast
1:15 AM19.4 °F10.4 °F68 %30.00 in10.0 miWSW (250°)3.5 mphOvercast
1:35 AM19.4 °F10.4 °F68 %30.00 in10.0 miWest (270°)3.5 mphOvercast
1:55 AM17.6 °F12.2 °F79 %30.00 in10.0 miCalmOvercast
2:15 AM17.6 °F10.4 °F73 %30.00 in10.0 miWest (260°)3.5 mphOvercast
2:35 AM17.6 °F10.4 °F73 %29.99 in10.0 miWSW (240°)4.6 mphOvercast
2:55 AM17.6 °F10.4 °F73 %29.99 in10.0 miWest (260°)3.5 mphOvercast
3:15 AM17.6 °F10.4 °F73 %29.98 in10.0 miWSW (240°)3.5 mphOvercast
3:35 AM17.6 °F12.2 °F79 %29.99 in10.0 miWest (270°)4.6 mphOvercast
3:55 AM17.6 °F12.2 °F79 %29.99 in10.0 miWSW (240°)3.5 mphOvercast
4:15 AM17.6 °F12.2 °F79 %29.99 in10.0 miCalmOvercast
4:35 AM17.6 °F10.4 °F73 %29.99 in10.0 miWest (260°)3.5 mphOvercast
4:55 AM17.6 °F10.4 °F73 %30.00 in10.0 miWest (260°)4.6 mphOvercast
5:15 AM17.6 °F10.4 °F73 %30.00 in10.0 miWest (260°)4.6 mphOvercast
5:35 AM17.6 °F12.2 °F79 %30.01 in10.0 miWest (280°)4.6 mphOvercast
5:55 AM17.6 °F14.0 °F86 %30.01 in10.0 miWNW (290°)5.8 mphOvercast
6:15 AM19.4 °F12.2 °F74 %30.01 in10.0 miWNW (290°)4.6 mphOvercast
6:35 AM19.4 °F12.2 °F74 %30.02 in10.0 miWNW (300°)4.6 mphOvercast
6:55 AM19.4 °F10.4 °F68 %30.02 in10.0 miWNW (290°)6.9 mphOvercast
7:15 AM19.4 °F12.2 °F74 %30.03 in10.0 miWest (280°)5.8 mphOvercast
7:35 AM19.4 °F12.2 °F74 %30.03 in7.0 miWest (280°)4.6 mphOvercast
7:55 AM19.4 °F15.8 °F86 %30.03 in7.0 miWest (280°)4.6 mphOvercast
8:15 AM19.4 °F15.8 °F86 %30.03 in8.0 miWest (280°)4.6 mphOvercast
8:35 AM19.4 °F15.8 °F86 %30.04 in7.0 miWest (270°)5.8 mphOvercast
8:55 AM19.4 °F14.0 °F80 %30.04 in8.0 miWest (270°)5.8 mphMostly Cloudy
9:35 AM21.2 °F14.0 °F74 %30.05 in7.0 miWest (280°)5.8 mphOvercast
9:55 AM21.2 °F15.8 °F80 %30.06 in7.0 miWNW (290°)5.8 mphOvercast
10:15 AM21.2 °F17.6 °F86 %30.06 in7.0 miWNW (290°)6.9 mphOvercast
10:35 AM23.0 °F19.4 °F86 %30.06 in8.0 miWest (280°)8.1 mphOvercast
10:55 AM23.0 °F19.4 °F86 %30.06 in7.0 miWNW (290°)10.4 mphOvercast
11:15 AM24.8 °F19.4 °F80 %30.06 in7.0 miWest (280°)9.2 mphOvercast
11:35 AM24.8 °F19.4 °F80 %30.05 in7.0 miWNW (290°)9.2 mphOvercast
11:55 AM24.8 °F17.6 °F74 %30.05 in7.0 miWNW (290°)5.8 mphOvercast
12:15 PM26.6 °F17.6 °F69 %30.04 in7.0 miWNW (290°)8.1 mphScattered Clouds
12:35 PM26.6 °F17.6 °F69 %30.04 in8.0 miWNW (300°)5.8 mphMostly Cloudy
12:55 PM26.6 °F19.4 °F74 %30.03 in10.0 miWNW (290°)10.4 mph16.1 mphOvercast
1:15 PM28.4 °F21.2 °F74 %30.04 in10.0 miNW (310°)6.9 mphOvercast
1:35 PM28.4 °F17.6 °F64 %30.04 in10.0 miNW (310°)9.2 mphOvercast
1:55 PM26.6 °F17.6 °F69 %30.05 in10.0 miNW (310°)8.1 mphOvercast
2:15 PM26.6 °F17.6 °F69 %30.05 in10.0 miNW (310°)10.4 mph16.1 mphOvercast
2:35 PM26.6 °F19.4 °F74 %30.06 in10.0 miNW (320°)11.5 mph16.1 mphOvercast
2:55 PM26.6 °F19.4 °F74 %30.06 in10.0 miNW (320°)5.8 mphOvercast
3:15 PM26.6 °F19.4 °F74 %30.07 in10.0 miNW (310°)9.2 mphOvercast
3:35 PM24.8 °F19.4 °F80 %30.07 in10.0 miWest (280°)9.2 mphOvercast
3:55 PM24.8 °F17.6 °F74 %30.07 in10.0 miWest (280°)6.9 mphOvercast
4:15 PM24.8 °F17.6 °F74 %30.08 in10.0 miWest (280°)6.9 mph18.4 mphOvercast
4:35 PM24.8 °F17.6 °F74 %30.07 in10.0 miWest (280°)6.9 mphOvercast
4:55 PM24.8 °F17.6 °F74 %30.07 in10.0 miWest (280°)6.9 mphOvercast
5:15 PM24.8 °F19.4 °F80 %30.08 in10.0 miWest (280°)10.4 mphOvercast
5:35 PM24.8 °F17.6 °F74 %30.08 in10.0 miWest (270°)6.9 mphOvercast
5:55 PM23.0 °F12.2 °F63 %30.08 in10.0 miWest (280°)8.1 mph18.4 mphOvercast
6:15 PM23.0 °F12.2 °F63 %30.08 in10.0 miWest (280°)6.9 mphMostly Cloudy
6:35 PM21.2 °F15.8 °F80 %30.07 in10.0 miWSW (250°)5.8 mphPartly Cloudy
6:55 PM21.2 °F14.0 °F74 %30.07 in10.0 miWSW (250°)5.8 mphClear
7:15 PM21.2 °F15.8 °F80 %30.07 in10.0 miWest (260°)4.6 mphClear
7:35 PM21.2 °F15.8 °F80 %30.06 in10.0 miWSW (250°)8.1 mphClear
7:55 PM21.2 °F15.8 °F80 %30.06 in10.0 miWest (260°)8.1 mphClear
8:15 PM19.4 °F15.8 °F86 %30.05 in10.0 miWSW (250°)9.2 mphClear
8:35 PM19.4 °F15.8 °F86 %30.03 in10.0 miWSW (250°)10.4 mph18.4 mphClear
8:55 PM19.4 °F15.8 °F86 %30.03 in10.0 miWSW (250°)12.7 mph19.6 mphClear
9:15 PM19.4 °F14.0 °F80 %30.02 in10.0 miWSW (250°)10.4 mph18.4 mphClear
9:35 PM19.4 °F12.2 °F74 %30.02 in10.0 miWSW (250°)10.4 mph18.4 mphScattered Clouds
9:55 PM17.6 °F14.0 °F86 %30.01 in10.0 miWSW (250°)11.5 mph23.0 mphPartly Cloudy
10:15 PM17.6 °F12.2 °F79 %30.01 in10.0 miWSW (240°)10.4 mph17.3 mphClear
10:35 PM17.6 °F12.2 °F79 %30.00 in10.0 miWSW (250°)10.4 mph21.9 mphClear
10:55 PM17.6 °F10.4 °F73 %29.98 in10.0 miWSW (250°)10.4 mph18.4 mphClear
11:15 PM17.6 °F10.4 °F73 %29.97 in10.0 miWest (260°)11.5 mph20.7 mphClear
11:35 PM17.6 °F10.4 °F73 %29.96 in10.0 miWSW (250°)12.7 mph23.0 mphClear
11:55 PM17.6 °F8.6 °F68 %29.94 in10.0 miWSW (250°)11.5 mph19.6 mphClear
Hourly data recorded from KMNM, located miles away from Crivitz, Wisconsin







STORIES FROM OUR PARTNERS